Simultaneous Nadir Overpasses (SNOs) Predictions

Prediction of SNOs between AQUA and GOES-15 Satellite Orbit:

Table of predicted SNOs for the next 14.0 days since TLE Epoch: 9/7/2018
Index Date Time (AQUA) AQUA Lat,Lon GOES-15 Lat,Lon Distance(km) Time Diff (sec)
1 09/07/2018 22:47:34 -0.98,-137.84 -0.38,-135.13 308.27 80
2 09/09/2018 22:35:21 -0.32,-134.88 -0.38,-135.20 36.63 80
3 09/11/2018 22:23:08 0.33,-131.92 -0.38,-135.28 381.37 80
4 09/12/2018 10:44:23 0.76,-137.08 0.37,-135.31 201.24 80
5 09/14/2018 10:32:10 0.09,-134.12 0.37,-135.38 142.75 80
6 09/14/2018 22:53:34 -1.18,-139.32 -0.36,-135.37 448.37 80
7 09/16/2018 10:19:56 -0.51,-131.15 0.37,-135.43 486.15 80
8 09/16/2018 22:41:20 -0.58,-136.35 -0.36,-135.43 104.99 80
9 09/18/2018 22:29:07 0.09,-133.39 -0.36,-135.48 237.81 80
10 09/19/2018 10:50:22 1.00,-138.55 0.34,-135.53 343.92 80
11 09/21/2018 10:38:09 0.33,-135.59 0.34,-135.57 2.82 80




NCC Satellite Simultaneous Nadir Overpasses (SNOs) Prediction Service
